Wind_Speed
13 13 13 13 12 12 12 11 10 10 11 11 11 11 12 11 11 11 12 13 13 13 13 13 13 14 14 15 16 15 15 15 16 16 15 16 14 12 12 12 15 16 16 17 16 13 11 10 7 4 2 3 2 2 4 4 6 6 6 7 6 9 11 8 8 11 13 15 16 15 16 18 18 18 17 18 17 17 17 15 17 16 15 17 20 22 22 22
12 13 13 13 13 13 13 13 11 11 10 11 11 11 11 11 11 11 11 12 13 13 13 13 13 14 14 15 16 16 16 16 16 15 16 17 14 12 11 11 14 16 16 16 15 13 12 9 7 4 2 3 4 3 4 5 6 3 4 6 5 7 10 11 9 11 12 14 16 14 16 18 18 18 17 18 17 17 16 16 21 20 17 19 21 22 22 21
9 10 11 12 13 13 14 14 13 12 10 11 11 12 11 11 11 11 11 11 12 13 13 14 13 14 14 14 15 15 16 16 16 16 17 17 14 13 11 10 13 15 16 15 14 14 12 9 6 4 3 4 6 5 5 5 3 2 2 5 7 7 8 11 9 7 11 13 15 15 16 19 18 18 17 17 16 17 17 18 24 23 20 21 22 22 22 21
7 7 8 9 11 12 13 14 14 13 12 11 11 12 12 11 11 11 11 11 11 11 12 13 13 14 13 14 14 14 15 14 17 19 16 16 15 14 11 10 12 14 16 16 17 16 14 10 7 5 5 6 8 6 7 6 4 2 1 5 7 6 5 7 8 5 7 13 14 14 16 17 18 18 17 17 16 17 17 18 23 22 20 23 23 22 22 20
6 6 7 7 8 10 12 13 13 14 13 13 12 11 12 12 11 11 11 11 11 11 12 12 12 13 12 13 13 14 12 8 17 21 14 14 16 15 12 11 12 14 17 18 19 18 16 13 7 8 8 9 9 8 8 7 8 4 3 3 5 4 4 4 5 7 2 13 13 13 15 15 18 17 15 16 15 15 16 17 21 20 17 21 23 22 22 20
7 7 6 6 7 8 9 11 12 13 13 14 14 13 12 12 12 11 11 11 11 11 11 11 12 12 12 12 12 13 12 9 17 19 14 15 15 15 14 12 13 15 18 19 19 18 17 14 10 11 10 9 9 11 10 8 8 4 5 2 7 5 3 6 3 8 4 12 13 12 14 15 17 17 16 17 15 15 17 18 20 19 16 20 22 21 21 21
8 8 7 7 7 7 8 9 10 11 12 13 14 14 13 13 12 12 11 11 11 11 11 11 11 11 11 11 11 13 14 15 19 15 13 16 15 15 15 14 14 15 19 20 19 18 16 13 11 11 11 9 9 11 11 7 7 5 4 3 8 4 2 5 4 6 3 9 12 12 14 14 16 17 17 17 15 15 19 21 21 19 18 20 21 21 21 20
8 9 8 8 8 8 8 8 9 10 11 12 13 14 14 14 13 12 12 11 11 11 12 11 10 10 10 9 10 11 11 17 23 16 12 15 15 15 15 15 14 14 18 19 19 18 14 13 12 12 12 10 8 9 13 10 7 7 5 3 7 2 3 1 6 6 1 7 12 13 13 13 15 15 16 15 14 15 18 22 21 19 20 21 21 22 21 20
8 9 9 9 8 8 8 8 9 9 11 11 12 13 13 14 14 13 12 11 11 12 12 12 11 10 9 9 9 8 10 19 24 17 13 13 14 16 15 15 14 13 15 18 19 18 13 12 12 12 12 10 9 9 12 11 9 7 7 4 4 1 2 2 7 9 3 4 12 16 14 15 15 14 14 13 14 16 19 22 21 20 22 23 22 22 21 20
9 9 9 9 9 9 9 8 8 8 10 11 12 12 12 13 14 14 13 12 11 11 11 11 11 11 9 9 7 6 11 21 21 16 16 14 13 15 15 15 15 13 14 18 19 18 14 12 9 11 11 12 12 9 9 11 11 8 8 8 2 2 2 2 6 10 6 4 11 17 16 16 15 14 14 15 15 17 19 21 21 21 23 23 23 23 21 20
11 11 10 9 9 9 9 9 9 8 9 10 11 11 11 11 12 13 13 12 12 11 11 11 11 11 10 9 10 8 11 20 19 16 17 16 14 14 15 16 15 13 13 16 19 17 14 12 8 9 9 11 10 8 10 11 11 8 6 7 6 5 4 2 7 11 7 5 11 16 18 16 16 14 14 17 17 18 21 22 22 22 24 24 22 22 22 21
13 12 11 10 9 9 9 10 9 9 9 9 10 10 11 10 11 12 12 13 12 11 11 11 11 12 11 10 13 13 13 18 19 13 14 17 15 14 15 16 15 14 12 14 17 16 15 12 9 10 9 8 8 7 9 10 11 10 7 7 7 6 7 4 9 12 6 7 11 14 19 17 15 13 14 18 19 21 23 24 24 22 24 25 23 22 22 21
15 14 13 11 10 9 9 9 10 9 9 9 9 9 9 10 11 11 12 12 12 11 10 11 11 11 11 8 12 15 15 17 17 12 13 17 16 15 15 16 16 15 14 13 12 12 15 13 10 13 12 10 9 8 6 8 10 11 10 9 8 8 10 9 10 10 4 8 9 11 17 18 16 15 17 20 21 24 24 24 24 22 23 25 24 23 23 22
18 16 14 12 11 10 9 9 10 9 9 9 9 9 9 9 9 10 11 10 11 11 9 11 11 11 13 11 11 16 14 16 15 11 12 14 15 16 15 17 18 16 16 15 10 11 13 11 13 17 16 14 14 10 9 8 10 11 10 9 9 7 9 11 10 9 5 9 11 11 13 15 16 18 20 21 23 25 25 26 26 23 24 24 24 24 23 22
19 19 17 14 12 11 10 10 10 9 9 9 9 9 8 8 8 9 9 9 10 10 9 10 10 11 13 10 13 15 12 14 13 10 10 12 14 15 15 17 18 17 16 17 13 11 13 15 19 20 16 15 15 11 9 9 11 12 11 10 10 8 6 8 8 7 4 8 13 11 12 14 14 17 19 20 22 25 25 26 25 24 25 24 24 24 23 22
19 20 19 17 14 12 11 10 10 9 9 9 9 8 8 8 8 7 8 8 8 8 9 9 10 11 11 9 14 15 11 10 11 10 9 10 12 13 15 17 18 18 16 17 16 12 16 22 21 19 15 12 12 11 9 11 13 14 14 11 9 10 9 6 6 7 4 6 9 7 10 15 13 15 19 20 22 23 25 27 26 25 24 24 23 23 24 23
20 20 19 18 15 13 11 11 10 9 8 9 8 8 7 7 7 7 7 7 7 7 7 8 9 11 11 12 16 15 11 9 11 11 10 11 11 12 16 17 18 19 17 18 20 16 19 24 20 17 17 14 13 12 12 13 14 15 15 13 10 10 11 9 7 7 5 4 7 5 7 11 13 17 19 20 21 20 21 25 28 27 25 24 23 23 24 24
22 21 20 18 15 13 11 10 10 9 8 8 8 7 7 7 6 6 6 6 6 5 5 7 8 6 8 12 14 13 9 9 12 10 11 11 11 12 16 16 15 18 17 16 20 18 16 19 17 15 15 17 15 15 17 15 13 14 15 13 12 11 11 13 13 11 7 5 6 7 6 8 14 19 20 21 21 19 19 21 24 26 26 25 23 23 23 23
23 22 21 18 16 13 11 9 9 8 8 7 7 6 5 5 4 7 8 7 6 4 1 4 8 5 4 7 6 8 7 11 11 9 11 11 11 14 15 15 15 16 15 13 16 16 13 13 16 16 17 18 17 18 20 17 14 13 13 13 12 12 13 14 14 12 10 8 7 7 6 8 13 16 19 20 19 18 20 20 20 23 25 25 23 22 23 23
22 21 20 18 16 13 11 9 8 7 7 6 6 5 2 5 6 9 10 8 7 10 5 4 9 6 2 4 1 7 11 14 11 8 12 13 13 13 14 15 14 14 15 13 13 14 13 14 17 20 19 18 17 19 19 20 18 16 13 12 11 12 15 13 14 11 10 10 8 7 6 7 8 11 15 17 18 19 19 19 20 21 23 25 24 22 22 22
21 19 19 17 16 14 11 9 7 6 6 4 4 4 1 6 5 5 8 6 4 11 10 8 10 7 3 3 8 13 12 12 11 10 12 14 12 12 14 15 14 15 16 14 11 12 15 17 19 19 19 17 16 18 19 20 20 20 17 14 12 12 13 8 14 11 7 8 6 6 6 6 6 9 13 15 17 19 18 18 19 19 21 24 24 24 22 22
18 17 17 16 15 14 11 9 7 6 5 3 3 4 1 6 8 10 9 5 4 10 11 10 12 11 9 7 9 12 11 10 11 12 13 13 13 13 15 15 15 16 16 16 15 14 17 20 18 16 17 18 16 16 20 20 20 21 18 15 16 14 12 8 11 12 10 9 7 8 8 5 6 8 12 14 15 17 16 17 18 17 19 21 23 24 22 22
17 16 15 15 14 13 11 9 7 5 4 2 2 3 3 8 7 8 11 7 5 9 12 13 14 13 13 10 10 12 12 11 12 14 15 14 15 14 13 14 16 16 15 18 19 16 18 19 17 16 15 17 18 17 18 19 20 20 16 15 16 13 13 10 11 12 12 11 10 10 11 6 7 9 11 12 13 14 15 16 17 17 18 19 21 24 24 24
17 16 16 15 14 13 12 9 6 5 3 2 3 4 6 8 4 6 9 8 9 10 11 13 14 14 15 13 13 12 11 12 13 15 17 16 16 14 13 14 15 16 17 19 20 18 17 15 15 18 16 16 19 17 17 18 19 18 16 15 14 13 13 7 9 9 8 11 10 12 14 8 8 10 13 14 12 13 14 16 17 17 18 19 21 24 25 25
16 15 15 14 14 13 11 9 5 4 6 5 3 5 6 5 4 5 5 6 10 11 11 12 13 13 14 12 12 12 11 13 13 15 19 16 16 14 12 13 16 17 17 18 20 20 17 14 15 19 18 18 18 17 16 17 18 18 17 17 15 14 14 9 8 7 8 11 15 14 11 9 13 14 16 16 13 13 12 13 16 18 20 20 21 24 25 24
14 14 13 13 12 10 10 8 5 9 12 7 4 7 5 3 4 4 3 7 11 11 10 12 13 12 14 14 11 9 11 15 13 16 19 16 17 15 11 12 16 17 16 16 19 20 17 15 15 18 19 18 19 18 17 16 17 17 16 19 18 15 16 11 6 9 12 11 16 18 8 7 16 18 17 17 16 16 14 12 14 18 20 20 22 25 24 22
12 12 11 10 9 7 7 6 4 10 9 5 7 7 3 1 3 3 3 8 11 12 9 10 12 10 13 14 12 11 10 13 14 17 18 14 17 16 13 12 14 16 15 14 16 18 17 17 15 17 19 20 20 19 15 15 17 16 14 17 20 19 18 14 11 12 15 14 13 18 12 5 15 18 17 18 19 20 17 15 15 17 17 19 25 24 21 21
11 10 9 8 8 6 6 5 3 5 2 12 8 4 2 2 2 3 3 5 6 11 9 10 11 10 11 12 14 14 6 8 16 18 15 13 16 17 14 12 12 16 17 16 16 14 15 19 17 16 18 19 20 18 14 15 18 17 13 12 18 23 18 13 14 15 15 15 12 16 13 5 15 20 18 17 20 21 18 19 19 17 15 18 23 21 19 22
9 9 8 7 7 5 5 6 5 3 3 6 3 1 2 3 4 2 5 4 5 8 6 8 10 9 10 11 16 16 7 8 14 14 12 13 18 17 13 13 11 14 19 20 18 14 14 19 18 16 17 15 16 17 14 15 17 18 13 10 13 20 18 14 13 12 11 13 12 15 16 7 13 22 21 16 18 19 18 19 18 15 14 16 19 19 20 21
8 8 8 7 6 4 3 6 7 5 2 1 2 3 4 6 2 4 6 2 2 6 6 7 10 11 11 12 17 17 12 10 9 11 13 14 17 15 12 12 10 11 18 20 19 17 15 15 15 15 16 15 14 15 16 15 14 16 14 10 9 14 18 18 16 13 9 10 14 16 16 12 10 16 19 16 16 15 15 17 16 14 14 16 19 20 21 20
7 7 8 8 7 6 6 6 6 5 4 3 5 7 6 3 2 7 4 1 1 3 4 8 10 13 14 14 18 18 15 11 8 11 14 12 16 16 12 12 10 9 15 17 17 18 16 15 15 14 14 16 15 15 16 14 14 16 14 11 10 8 10 13 16 15 9 8 15 18 16 14 8 13 21 19 16 13 12 14 14 12 12 15 17 19 21 20
6 7 8 8 9 9 9 7 2 4 6 5 8 9 5 3 5 6 2 3 3 0 3 8 12 13 15 15 17 18 18 14 11 11 12 11 16 18 15 13 12 10 13 16 16 18 18 17 17 15 15 18 18 18 18 14 15 17 15 14 14 8 6 7 11 12 9 11 17 17 16 10 2 11 20 18 15 12 10 10 10 11 12 13 14 17 20 20
5 6 7 9 10 9 10 10 9 9 10 9 10 7 2 2 3 6 2 2 2 4 3 8 12 12 15 18 18 18 18 16 13 14 14 13 14 16 17 16 15 13 12 14 19 20 18 16 17 16 16 20 20 20 22 19 16 19 18 15 15 10 7 7 8 9 10 14 20 19 16 9 10 14 14 14 14 14 12 10 9 11 10 10 11 14 17 18
4 6 7 7 8 8 9 10 10 9 9 10 10 9 1 2 3 4 2 1 2 5 3 6 9 11 15 19 18 17 18 15 13 15 16 15 14 15 17 17 16 14 12 13 19 21 19 16 17 18 16 17 20 18 19 19 17 20 19 15 16 15 11 9 9 9 11 13 19 21 13 10 15 15 13 14 14 13 12 11 11 11 8 9 11 13 15 17
3 6 9 7 6 7 8 9 7 5 6 7 7 9 5 5 4 3 4 1 2 2 4 6 7 12 17 18 16 17 17 14 14 15 17 17 15 15 17 16 16 13 11 13 15 18 22 20 19 21 16 14 21 18 14 17 18 19 19 16 20 21 15 12 11 14 16 13 15 14 4 13 18 18 15 14 13 13 13 12 13 12 9 9 10 11 15 18
1 6 11 11 7 6 6 7 6 5 8 7 4 6 6 6 5 7 5 2 4 4 3 4 6 12 17 16 14 16 15 13 14 16 18 17 11 9 11 11 14 12 5 6 7 9 17 19 18 22 17 13 20 19 14 18 18 17 21 21 20 19 17 14 12 15 17 11 11 11 15 21 21 16 13 14 13 13 13 12 13 12 9 9 9 9 13 18
2 5 9 7 4 6 3 4 5 5 7 6 4 6 5 4 5 6 5 3 4 3 2 5 8 11 13 11 10 12 11 10 13 16 18 15 7 5 3 1 8 10 3 2 4 9 11 9 13 20 17 13 17 20 18 19 15 12 19 22 19 18 19 17 11 11 13 9 12 15 20 22 20 15 14 15 14 13 13 13 13 12 9 9 10 10 13 17
5 6 3 1 2 6 2 2 6 6 6 6 7 6 5 4 4 5 4 4 1 1 1 3 8 8 10 8 9 12 11 9 13 15 15 13 8 6 3 3 2 6 6 3 5 12 12 3 12 14 13 12 15 18 19 20 19 15 12 14 17 18 18 16 10 7 8 7 10 16 22 20 18 19 19 16 15 14 14 15 15 14 11 11 11 12 13 15
11 10 3 3 4 6 2 1 7 7 5 6 5 5 3 5 6 6 4 3 1 3 4 1 6 7 7 8 10 13 13 10 13 15 13 11 7 4 5 7 4 4 7 7 7 10 9 4 11 11 13 14 15 18 18 19 22 21 13 10 16 17 15 18 14 8 8 7 7 14 20 15 16 23 22 18 17 15 14 15 14 14 14 14 12 13 13 14
12 10 3 4 5 8 2 1 3 4 7 7 4 4 3 4 5 5 4 2 1 1 4 3 4 7 6 8 11 13 13 13 14 13 9 8 5 0 4 9 8 6 7 9 10 9 10 7 10 10 13 14 14 19 21 20 22 22 16 13 16 18 17 17 17 17 13 7 7 9 9 10 15 22 21 18 15 13 14 14 11 10 12 12 12 13 14 14
8 5 5 5 8 7 0 2 8 9 10 8 3 2 3 3 5 5 4 4 2 1 3 5 1 5 5 5 8 10 11 12 12 8 6 6 4 3 5 10 12 8 8 10 11 8 9 6 5 8 14 15 15 20 20 17 18 21 21 18 16 22 20 11 11 18 18 13 11 5 8 12 15 18 18 16 13 12 13 13 11 7 6 10 12 13 15 15
9 2 6 10 9 3 0 6 9 6 6 5 1 2 4 4 5 4 1 3 3 2 2 2 2 1 2 2 5 7 6 3 5 6 5 3 3 1 3 8 10 7 6 9 9 8 8 5 2 5 8 10 13 16 16 13 11 12 18 21 20 22 20 13 10 14 19 20 8 11 14 10 11 14 15 15 14 13 13 12 10 7 4 7 10 11 14 17
9 4 7 8 1 4 2 7 6 3 3 4 1 1 3 4 5 5 2 2 4 3 2 2 1 1 2 4 5 6 5 3 4 5 5 3 3 4 4 4 3 3 5 6 4 8 10 7 6 4 2 4 8 10 11 12 9 9 13 19 21 19 16 14 12 6 11 17 6 14 9 8 13 14 15 16 15 14 14 12 8 4 2 4 6 9 10 14
5 2 5 6 4 5 3 6 5 3 3 4 2 1 1 1 3 5 5 4 5 5 4 3 2 2 3 5 4 5 5 5 2 3 5 3 4 5 5 5 3 1 5 7 2 5 7 6 8 6 3 8 9 6 10 13 12 13 16 17 17 13 7 9 7 3 9 13 2 11 6 11 15 13 15 16 15 15 15 14 12 10 5 0 4 10 9 10
4 1 3 5 6 5 4 4 4 3 3 2 1 2 1 1 2 2 2 3 4 4 4 3 4 2 2 4 3 3 4 3 3 3 3 3 2 1 2 6 7 5 7 9 6 3 1 2 5 6 5 6 5 2 7 13 16 15 17 18 16 12 8 10 9 5 9 12 1 12 13 14 14 13 15 16 16 16 14 13 12 10 8 4 4 8 9 10
5 4 3 2 3 2 2 4 4 4 3 2 1 2 2 3 4 3 1 2 3 3 4 3 3 2 1 2 2 3 3 2 4 5 4 4 3 2 2 3 7 9 7 8 8 2 1 2 3 2 2 3 2 3 6 7 14 15 17 18 15 13 10 7 9 6 3 5 3 16 20 18 15 15 16 16 16 16 14 13 10 6 7 7 5 6 8 9
6 5 3 2 3 2 3 5 5 4 4 2 2 3 2 3 4 2 1 3 3 2 3 3 2 3 1 3 4 3 2 2 5 6 5 4 3 2 3 2 3 6 4 3 5 1 1 4 4 4 4 2 3 3 4 4 8 14 22 20 13 12 9 8 11 8 1 3 4 16 20 20 19 17 17 17 16 16 15 14 13 11 11 10 8 8 8 8
6 4 2 2 1 3 3 4 5 5 4 3 2 3 3 2 3 4 3 4 2 1 3 3 1 2 3 1 4 4 2 2 4 5 5 3 2 2 4 3 1 3 2 1 2 2 4 5 4 5 7 6 4 6 6 6 12 9 19 19 11 12 12 12 16 13 6 5 4 14 17 18 20 19 18 18 17 17 17 14 13 13 12 9 7 8 8 8
4 2 2 1 2 3 2 3 5 5 4 5 4 3 4 3 2 3 5 5 2 0 1 2 1 1 1 0 2 3 5 5 3 4 4 2 2 3 3 2 2 1 1 2 3 4 7 4 2 3 5 6 7 7 7 7 9 5 8 10 5 8 11 13 16 14 8 4 5 13 15 16 20 21 20 20 18 18 18 16 14 13 11 8 7 8 8 9
4 5 3 4 3 3 2 2 2 3 4 5 5 4 4 4 4 4 6 7 4 2 2 2 2 2 2 2 4 4 5 4 2 2 3 1 1 3 1 2 3 2 1 1 2 3 7 3 4 5 6 7 7 7 8 8 7 4 4 6 6 6 7 9 11 10 7 5 8 14 18 20 22 21 20 20 18 17 17 18 18 16 11 7 6 7 8 9
7 8 8 6 3 4 3 3 1 1 3 4 4 3 3 3 3 3 4 6 7 6 5 5 4 4 5 6 8 7 4 4 3 3 3 2 1 4 2 3 3 2 4 1 2 4 7 4 3 4 8 10 9 8 9 10 10 11 10 8 8 9 10 9 9 8 7 8 12 16 18 22 24 21 20 19 17 15 16 17 19 20 17 11 7 5 5 7
5 6 9 9 4 5 2 2 2 2 2 1 1 3 3 2 1 2 2 3 4 4 4 4 2 2 4 5 6 6 4 4 4 3 4 2 1 2 2 4 5 2 1 1 3 5 6 5 4 4 7 11 11 10 10 10 10 13 15 14 13 12 11 10 11 9 6 8 15 18 18 21 23 20 18 18 15 13 14 13 13 16 18 16 10 6 4 8
Wind_Direction
287 287 287 288 288 289 289 285 281 279 280 277 274 270 267 264 262 261 260 259 258 256 252 250 247 243 238 236 235 236 240 239 236 233 231 234 233 234 230 222 219 217 216 214 216 214 213 217 211 212 229 283 297 259 275 253 248 291 354 6 18 38 42 54 88 122 139 145 147 152 155 155 156 154 152 149 147 142 139 140 129 128 152 161 157 151 149 150
287 285 284 284 284 285 285 285 283 279 277 276 275 270 267 265 263 262 260 259 259 258 256 252 248 245 242 238 235 235 237 239 239 237 236 235 233 234 227 220 219 215 216 214 213 210 206 210 200 200 205 236 264 279 295 258 224 251 3 20 31 35 43 52 79 121 136 144 149 149 153 156 157 158 156 152 151 142 139 146 135 138 167 166 159 155 152 151
295 289 286 284 283 282 281 282 283 282 278 273 272 271 269 265 263 262 260 260 259 259 259 256 252 247 243 239 236 235 235 238 242 238 237 236 232 233 226 220 220 212 211 209 207 203 197 194 188 186 173 220 244 242 256 264 239 229 7 46 46 28 38 47 59 113 138 143 147 148 156 160 157 160 164 160 155 147 146 150 142 151 171 163 160 160 153 153
310 303 296 290 287 283 280 280 280 283 282 277 271 269 269 267 264 260 258 259 260 260 260 258 256 251 245 241 237 236 235 242 246 236 234 237 232 231 225 219 220 211 205 204 203 196 186 180 184 196 189 227 249 242 244 278 290 235 56 50 39 19 28 42 45 64 149 151 148 151 160 162 159 161 164 162 155 152 151 151 151 159 165 158 160 160 154 155
326 318 309 303 296 289 285 281 279 281 282 282 278 271 268 267 265 261 257 256 257 259 261 260 259 255 250 243 235 234 230 234 246 234 226 236 232 229 224 217 219 210 201 202 202 191 180 173 187 219 212 222 242 252 249 264 269 277 342 56 64 24 341 344 36 16 199 167 157 154 160 159 159 162 161 161 159 154 145 144 156 160 156 155 158 159 157 156
331 324 320 314 305 298 292 287 283 280 281 281 280 277 272 267 265 262 256 252 253 256 259 259 259 257 253 246 236 232 215 205 241 235 222 231 231 227 221 218 219 209 201 201 202 190 177 173 191 219 220 222 234 255 261 250 240 273 318 89 87 70 348 310 344 3 336 172 164 156 161 163 161 163 161 162 163 155 142 144 161 161 155 156 157 160 159 157
329 323 321 316 309 305 297 293 289 284 282 279 278 278 276 273 269 264 259 252 250 250 254 257 258 257 254 249 238 232 216 218 241 239 225 228 229 227 219 219 220 213 205 200 201 189 175 178 196 214 223 236 237 256 274 266 223 224 288 68 79 76 39 316 295 347 346 172 171 162 162 166 163 164 164 165 166 162 151 152 163 162 157 159 158 162 162 158
331 327 323 318 313 307 301 298 294 289 285 280 278 276 275 276 273 270 264 255 249 245 249 252 254 255 252 250 239 232 224 234 239 232 233 231 226 227 219 220 221 218 210 202 200 185 175 187 200 213 219 233 236 258 279 280 247 217 237 62 84 102 74 54 270 296 314 168 176 169 159 159 159 164 166 165 165 165 158 157 165 164 160 161 159 163 165 162
336 333 329 324 318 311 305 300 296 293 289 284 281 277 275 275 274 274 268 261 253 243 244 246 251 253 247 245 232 220 226 240 238 228 232 232 225 225 217 218 220 223 214 205 198 180 180 198 203 213 219 242 247 263 277 270 264 228 232 289 67 106 89 114 251 262 273 188 185 175 167 166 162 163 167 165 163 161 157 159 166 164 161 163 162 165 167 166
338 336 332 329 325 319 313 304 299 294 290 287 285 281 278 275 273 273 271 267 258 246 242 240 246 246 243 237 205 195 236 245 244 230 227 229 225 220 214 215 215 220 215 207 198 180 183 197 204 218 233 259 250 257 266 247 254 244 245 273 291 266 227 138 218 229 251 232 190 178 172 172 168 172 173 162 158 159 156 158 163 162 162 163 165 168 167 167
340 338 335 331 326 322 318 312 307 298 292 287 285 283 280 277 273 271 271 270 263 254 244 235 240 240 240 227 183 184 244 248 245 231 225 227 224 218 213 211 211 214 212 206 197 183 182 190 205 225 244 260 242 260 266 242 247 245 251 258 249 247 224 180 185 205 236 199 179 172 166 171 173 176 180 165 159 159 156 160 163 162 163 162 167 171 167 167
342 341 340 337 328 320 314 312 309 305 298 289 286 284 281 279 276 272 270 270 266 259 247 236 236 233 237 224 194 209 241 246 247 240 230 227 222 217 210 207 209 208 204 202 197 188 186 192 210 221 235 249 234 271 264 233 240 238 250 256 248 240 213 196 178 193 215 168 171 166 159 171 177 165 171 172 160 151 156 164 165 165 163 162 171 173 167 168
341 342 343 340 334 322 309 305 304 304 303 297 291 285 283 281 277 275 270 268 267 262 253 239 232 229 231 208 204 229 242 246 250 248 235 227 221 216 209 205 204 203 197 189 196 205 195 196 223 225 233 243 237 277 267 222 237 237 247 254 253 246 205 186 182 194 191 145 164 172 156 164 176 164 165 171 157 150 162 168 163 167 165 164 175 174 168 169
337 337 339 337 334 325 312 302 297 296 297 297 296 290 285 280 277 277 272 267 266 263 255 242 232 228 219 200 225 242 240 245 249 247 239 225 217 215 208 206 202 201 195 175 188 226 209 209 235 226 222 220 220 270 282 236 239 235 241 245 245 246 188 176 200 210 185 143 152 166 158 163 177 170 164 166 158 156 168 169 164 169 166 169 179 173 169 171
333 332 332 332 329 325 316 306 300 293 288 288 292 293 288 283 278 277 273 269 266 261 257 244 228 228 221 222 255 256 244 249 252 247 236 218 216 214 207 207 202 199 194 179 185 215 215 223 232 221 214 210 215 258 277 240 236 228 231 236 228 234 197 179 203 199 168 143 146 154 164 173 183 177 170 169 165 165 170 168 167 170 167 173 180 172 170 173
335 332 330 329 327 322 314 308 304 296 286 280 284 290 290 286 279 276 275 270 264 258 255 238 225 224 214 222 247 249 245 242 242 236 214 203 213 212 205 203 200 197 196 191 189 198 220 224 222 217 215 221 230 245 253 237 230 220 223 231 223 227 225 192 164 166 176 158 150 154 166 172 182 184 178 175 173 173 173 171 169 170 169 176 179 172 174 175
340 337 335 332 328 322 312 306 305 300 290 279 280 284 288 290 283 281 275 269 265 257 248 233 225 218 216 233 237 244 250 220 219 221 195 188 193 201 208 202 200 201 199 201 199 199 221 226 220 217 215 220 231 229 234 234 222 215 217 224 225 225 231 219 180 179 207 181 154 143 151 169 181 182 178 177 180 181 179 176 172 171 171 178 179 174 179 180
343 342 339 336 332 325 314 304 301 298 291 281 280 280 287 295 292 293 284 271 259 238 243 234 214 207 244 255 238 242 250 208 208 209 192 183 179 201 210 198 198 203 200 208 212 209 224 231 221 221 221 220 223 217 223 226 217 217 211 213 224 224 232 224 200 188 186 170 157 144 145 172 178 177 176 179 183 182 182 182 176 172 172 179 179 176 183 183
342 341 339 338 337 330 319 307 295 291 287 282 281 276 289 309 321 325 304 275 242 176 62 245 189 159 306 298 258 246 230 205 206 196 189 180 183 208 204 189 198 201 198 210 220 217 223 228 216 217 224 220 219 217 223 227 228 233 219 213 220 221 238 229 199 185 172 162 164 160 163 177 181 179 174 179 187 184 183 186 183 177 175 177 176 178 186 185
341 340 339 339 339 335 329 315 297 288 282 277 279 264 297 353 354 335 305 275 222 175 158 200 175 153 349 342 201 182 183 198 201 181 190 189 189 204 195 187 197 197 198 206 218 216 209 217 216 218 220 218 221 223 229 236 240 253 250 239 230 226 246 229 181 173 165 159 173 186 184 174 180 185 175 177 187 189 188 187 189 186 180 178 173 179 188 186
342 341 340 339 341 340 336 327 311 298 283 277 278 233 102 350 320 284 283 293 249 210 206 198 182 179 202 203 188 178 177 194 197 188 198 197 187 194 194 189 191 199 202 201 210 211 207 220 222 221 222 220 227 228 232 241 244 256 259 255 255 237 238 204 161 172 187 178 183 179 179 173 169 182 182 181 185 187 189 188 192 192 185 181 173 176 188 187
342 343 342 342 343 341 341 338 327 314 300 288 263 195 167 300 248 225 250 276 279 251 240 217 202 205 201 193 197 196 198 205 200 200 204 197 184 189 199 196 193 203 205 200 207 209 211 224 224 222 225 222 230 234 233 239 243 252 250 250 264 240 212 190 169 179 190 200 202 166 167 178 161 172 181 185 189 188 189 190 194 195 188 186 179 177 185 185
345 346 345 346 345 342 344 342 339 341 332 301 229 191 261 278 238 230 250 250 259 255 244 230 216 213 210 204 202 194 198 210 202 199 204 196 183 187 201 204 200 204 207 205 208 210 214 226 223 219 226 222 228 233 232 236 238 248 245 242 259 236 206 209 188 177 184 209 223 173 164 182 170 173 177 177 185 188 189 189 191 193 188 186 186 185 184 184
347 346 346 346 344 345 347 348 357 1 3 346 250 236 270 284 268 252 250 251 260 241 230 232 223 220 215 213 227 217 199 209 204 200 206 194 182 191 202 205 205 207 212 210 212 219 222 228 222 218 224 221 225 230 229 231 229 238 241 232 241 228 216 203 154 162 188 206 214 167 153 185 203 183 172 169 170 175 183 186 188 191 190 188 186 190 190 187
346 344 344 342 342 344 344 351 4 10 25 31 332 286 284 284 265 258 250 259 255 225 220 228 217 219 210 199 229 226 200 210 207 202 212 196 181 196 204 207 211 211 214 211 214 226 228 227 220 218 222 220 223 228 225 226 224 230 232 222 226 222 211 184 150 190 210 194 194 178 157 186 207 196 181 181 179 175 179 186 191 191 194 194 183 188 196 194
345 345 343 340 341 341 346 359 40 43 27 18 313 295 291 262 244 244 229 254 243 211 211 219 208 208 201 197 210 201 203 220 207 202 217 200 180 197 210 210 214 214 217 213 215 225 227 226 221 215 219 218 219 226 224 219 221 227 224 217 227 233 221 214 232 238 230 221 197 193 215 193 183 192 188 184 185 182 180 185 193 193 197 200 185 187 198 196
346 349 346 344 349 351 5 16 88 62 28 281 268 294 281 219 237 200 223 260 232 196 190 202 212 212 200 204 201 183 201 213 192 195 214 203 184 198 214 212 215 218 218 213 214 223 224 222 220 213 216 216 214 222 220 208 217 226 220 215 224 241 243 237 263 256 232 245 216 192 226 207 160 186 192 179 178 178 180 190 197 193 196 197 187 189 199 197
350 355 352 353 360 7 31 30 45 65 234 240 261 294 214 186 178 153 275 284 169 166 180 189 210 209 194 202 194 188 199 184 179 187 203 203 184 190 212 219 224 225 217 212 213 218 222 221 217 212 217 216 210 215 213 204 217 224 221 228 227 235 246 240 254 254 225 240 234 186 205 197 139 161 173 165 165 167 177 193 199 195 194 194 187 190 201 201
358 0 359 5 14 17 45 45 35 53 214 234 252 222 165 123 111 145 269 288 136 160 185 198 210 191 177 191 191 195 200 173 186 195 201 200 181 182 214 225 232 234 221 220 223 218 220 222 217 210 214 212 204 210 213 208 217 220 228 266 244 222 226 229 238 243 222 237 239 196 199 200 138 153 168 170 170 175 183 191 201 206 202 202 200 198 199 201
6 7 5 15 24 24 62 57 33 26 44 67 121 143 124 109 110 241 235 221 142 165 175 208 212 184 177 190 191 198 202 190 200 196 188 194 187 191 224 223 225 234 219 225 232 219 212 216 209 203 207 210 210 212 214 214 215 218 226 252 248 211 206 216 221 227 232 231 232 224 207 190 159 166 179 179 179 188 194 195 205 213 205 204 207 203 201 202
13 18 18 28 38 37 66 62 2 3 56 81 117 108 90 89 255 253 229 218 211 163 194 218 199 185 189 193 190 195 201 195 184 176 176 189 199 208 231 221 213 226 217 223 233 224 218 212 203 205 210 211 216 215 214 217 213 217 221 215 224 218 198 220 229 230 247 232 230 239 220 205 198 174 174 175 177 181 188 198 204 202 199 201 202 202 203 206
20 34 36 46 53 51 73 87 30 53 85 100 103 88 42 333 251 234 263 294 255 189 239 205 181 188 194 192 192 193 197 191 180 187 191 192 199 207 215 209 202 211 212 209 212 219 226 216 204 212 216 211 217 217 208 207 208 216 223 207 208 209 183 222 233 219 234 238 233 234 222 227 35 129 157 168 173 165 164 184 184 177 186 198 203 202 202 205
33 47 52 59 64 68 80 85 86 92 102 106 80 53 10 349 259 230 216 243 260 347 289 183 173 189 192 194 195 190 198 199 193 201 203 198 200 201 206 209 204 211 222 209 199 205 214 214 209 211 212 213 223 220 203 198 201 208 214 205 204 212 192 207 225 213 224 235 238 240 225 190 100 111 140 149 152 152 154 163 159 163 181 192 195 199 202 204
46 50 51 56 63 74 83 85 91 97 107 99 46 10 302 224 257 233 218 233 326 332 283 188 183 189 193 201 196 186 199 205 195 198 197 195 199 195 202 213 209 219 240 216 203 212 213 209 209 210 213 211 216 222 211 202 201 206 215 206 202 218 217 202 213 219 218 224 234 242 230 161 134 134 139 140 141 144 151 156 151 158 175 177 178 192 203 205
64 68 48 41 51 65 81 86 86 84 89 84 26 356 334 297 297 7 14 5 347 308 225 223 222 194 195 207 197 186 200 204 193 200 200 195 201 199 195 202 210 228 243 211 210 231 225 216 211 210 216 207 205 218 220 210 207 207 216 217 208 216 224 217 219 220 214 216 224 223 147 108 127 132 134 140 136 131 135 139 141 153 173 178 181 192 197 200
107 67 24 18 25 30 67 80 63 62 67 58 356 323 318 304 321 355 355 334 321 311 210 217 221 199 200 205 192 186 200 206 193 199 205 197 196 197 183 189 205 212 239 225 235 257 236 226 209 197 203 207 208 215 212 211 215 203 206 217 215 216 230 234 226 218 215 218 213 178 111 113 129 129 139 143 131 127 126 125 132 145 168 179 184 190 191 195
54 53 8 8 8 344 20 73 40 47 49 25 319 303 318 319 332 343 340 323 313 303 232 195 193 210 216 201 189 191 197 213 206 200 203 195 171 156 154 168 198 192 198 262 273 296 278 238 176 174 190 206 210 212 211 215 226 211 201 209 216 226 244 255 249 223 218 221 209 171 134 142 149 138 147 142 124 124 122 119 121 127 145 159 168 183 189 193
54 68 20 325 336 334 343 61 25 32 19 336 288 288 341 16 2 355 350 332 323 107 314 198 184 229 237 196 194 208 203 214 220 208 196 191 179 173 215 294 214 203 221 225 283 299 298 225 154 172 194 195 196 207 215 216 223 232 218 206 218 228 236 243 249 242 226 233 218 170 148 161 166 149 149 142 127 123 118 115 113 110 120 131 148 173 184 189
49 46 20 240 294 318 263 98 28 30 356 329 292 277 337 31 17 12 13 350 41 66 11 251 205 239 244 207 207 216 211 210 221 220 201 189 183 173 240 255 243 243 242 242 270 294 300 221 175 194 208 191 190 206 214 210 217 238 253 237 230 231 229 223 218 231 241 241 224 173 154 157 161 153 150 142 134 128 115 113 116 116 118 119 133 162 177 184
31 7 309 214 286 306 255 141 353 319 299 308 300 285 330 28 18 16 22 357 353 30 7 352 234 223 222 224 218 212 214 212 216 220 191 173 186 250 265 242 232 254 264 252 249 274 292 246 183 188 202 193 195 206 211 211 215 227 237 232 219 217 229 231 218 223 237 245 240 206 155 114 129 143 144 137 130 123 116 113 117 128 133 131 136 154 171 181
40 333 262 249 285 298 230 260 281 279 289 291 273 321 1 28 11 8 17 4 344 293 348 14 292 221 216 233 219 203 211 211 207 201 157 165 218 290 266 229 226 247 260 245 241 265 289 268 174 177 194 202 211 207 206 213 214 218 222 219 212 211 218 232 228 220 223 245 259 208 119 96 117 135 137 133 125 116 116 115 112 118 150 168 163 163 170 173
51 10 280 285 282 275 344 295 286 278 302 305 271 15 19 23 359 345 358 357 348 307 302 3 360 266 197 188 200 198 203 192 168 168 157 156 181 249 264 227 226 252 253 237 241 255 272 287 269 207 200 209 207 191 192 204 211 224 223 214 214 216 212 216 230 215 215 235 236 112 111 111 120 133 134 132 129 122 119 118 117 113 135 175 167 160 167 168
33 349 307 305 301 103 347 313 309 285 327 347 314 318 359 22 15 11 15 342 341 349 334 348 2 6 83 131 179 191 175 113 96 136 147 143 202 245 263 213 202 289 251 230 257 254 247 248 246 262 290 219 186 174 199 215 225 234 219 210 214 215 214 224 235 238 240 238 177 98 113 145 133 136 136 130 128 124 119 113 110 111 152 201 151 130 147 166
47 321 314 334 46 68 336 319 330 316 345 360 327 307 336 354 26 34 35 19 7 8 8 29 37 19 61 93 141 175 164 150 133 131 130 145 222 257 252 192 141 23 217 196 196 238 231 238 245 250 243 208 188 187 218 219 227 227 211 210 218 220 255 292 290 307 278 261 136 83 113 148 138 140 137 132 130 124 121 117 106 89 78 296 138 125 135 155
66 308 281 325 4 15 334 334 355 352 360 8 3 17 10 307 306 326 6 2 358 360 2 24 30 28 73 87 108 145 158 170 195 180 131 129 178 265 227 199 192 191 199 195 194 209 222 286 266 241 234 220 189 228 246 217 217 225 216 214 221 231 270 316 322 295 262 267 22 99 123 139 142 143 137 135 133 123 121 129 128 113 103 101 110 125 138 148
49 345 283 317 2 2 343 360 360 350 354 11 13 2 11 5 337 298 292 330 325 347 1 360 353 4 132 163 141 139 171 190 171 178 165 135 152 165 144 198 216 207 203 207 207 211 4 281 281 242 265 339 26 331 318 228 212 220 220 217 223 238 252 280 293 289 272 274 112 120 137 147 149 149 141 136 132 124 118 118 117 100 88 93 102 112 120 134
32 343 301 316 357 7 17 17 2 355 6 20 22 359 353 10 5 360 343 331 313 286 326 343 331 328 322 212 202 168 163 142 135 156 160 130 122 185 154 106 243 214 196 210 217 254 289 225 225 217 233 332 1 300 302 291 271 243 221 217 226 242 254 260 250 246 325 329 137 141 153 156 151 152 146 139 134 129 126 119 109 91 76 80 96 103 105 120
14 344 300 269 343 360 7 29 28 26 28 31 40 15 352 6 33 40 26 354 342 264 302 337 335 332 9 132 176 168 165 153 129 134 139 131 120 161 151 94 4 207 165 21 289 219 206 215 203 205 232 250 275 280 253 282 322 284 212 209 226 240 249 256 247 245 275 305 170 158 164 162 159 159 150 142 138 132 129 126 121 114 104 100 101 93 98 126
36 17 9 31 49 7 351 32 42 45 50 64 75 42 22 41 53 36 25 11 358 305 333 344 281 254 340 15 146 154 175 182 162 142 138 128 144 152 157 128 91 111 123 12 323 209 200 232 243 227 263 251 243 270 256 257 329 359 171 183 214 243 250 251 248 247 251 264 193 173 171 168 168 163 151 143 139 135 133 129 124 119 115 121 122 100 97 127
144 154 111 73 39 359 28 40 28 40 44 63 75 48 41 63 80 71 40 34 51 61 51 78 91 72 64 118 117 123 158 158 125 159 155 82 177 183 170 132 120 44 348 300 325 214 202 251 291 259 275 266 240 252 256 259 293 303 199 200 225 253 264 250 245 246 238 222 184 168 168 172 168 156 147 143 139 140 146 144 135 126 119 123 123 104 102 127
172 169 148 115 17 340 51 54 10 65 47 58 66 47 65 79 74 75 38 41 70 70 63 87 94 83 82 97 106 101 106 113 104 154 161 61 85 160 156 172 172 3 349 293 276 232 214 250 291 246 254 257 242 238 244 255 270 266 253 241 228 238 249 241 235 240 237 214 184 166 169 176 169 149 140 145 148 150 152 151 147 141 137 132 119 100 110 139
167 165 146 120 37 339 40 42 2 61 57 52 55 56 84 91 88 99 34 25 77 79 69 82 89 110 112 120 125 113 107 122 123 149 165 145 100 161 215 237 225 247 354 278 271 253 231 253 265 228 240 250 241 234 239 243 251 254 250 243 231 227 233 233 227 226 239 227 202 186 174 169 164 155 149 149 150 147 144 149 157 159 157 148 124 94 125 165
Height
3136 3136 3135 3135 3135 3134 3134 3133 3133 3133 3133 3132 3132 3132 3132 3131 3131 3131 3131 3131 3131 3131 3131 3132 3133 3133 3134 3135 3135 3136 3136 3136 3136 3137 3138 3138 3138 3139 3140 3141 3142 3143 3145 3146 3148 3150 3151 3152 3153 3154 3155 3156 3157 3159 3160 3160 3159 3159 3159 3159 3159 3159 3159 3159 3159 3159 3159 3159 3160 3160 3161 3162 3163 3164 3166 3168 3169 3170 3171 3173 3174 3177 3179 3179 3179 3180 3182 3183
3136 3135 3134 3134 3133 3133 3132 3132 3132 3132 3132 3131 3131 3131 3131 3131 3131 3130 3130 3130 3130 3130 3130 3131 3131 3132 3133 3133 3134 3135 3135 3135 3136 3136 3137 3137 3138 3139 3140 3141 3141 3143 3145 3146 3148 3149 3151 3152 3153 3154 3155 3157 3159 3160 3160 3160 3160 3159 3159 3159 3159 3160 3160 3159 3159 3160 3160 3161 3161 3161 3162 3163 3164 3166 3168 3169 3170 3170 3172 3173 3175 3178 3179 3179 3180 3181 3183 3184
3135 3134 3134 3133 3133 3132 3131 3131 3131 3131 3131 3130 3130 3130 3130 3130 3130 3130 3130 3129 3129 3129 3129 3129 3130 3130 3131 3132 3133 3134 3134 3135 3135 3135 3135 3136 3138 3139 3139 3140 3141 3142 3144 3146 3147 3148 3150 3152 3153 3155 3156 3158 3160 3160 3160 3160 3160 3160 3160 3160 3160 3159 3160 3160 3160 3161 3161 3162 3162 3161 3162 3163 3165 3167 3168 3169 3169 3170 3172 3173 3175 3177 3177 3179 3181 3182 3183 3185
3135 3134 3133 3133 3132 3131 3130 3130 3129 3129 3129 3129 3129 3129 3129 3129 3129 3129 3129 3129 3128 3128 3128 3128 3129 3129 3130 3130 3132 3132 3133 3134 3133 3133 3135 3136 3137 3138 3139 3140 3140 3141 3143 3144 3146 3147 3149 3151 3153 3155 3156 3159 3161 3161 3161 3160 3160 3160 3161 3161 3161 3160 3159 3160 3161 3162 3162 3162 3162 3162 3162 3163 3165 3167 3168 3169 3170 3171 3173 3174 3176 3177 3178 3179 3181 3183 3184 3186
3134 3133 3133 3132 3131 3131 3130 3129 3129 3128 3128 3128 3128 3128 3128 3127 3128 3128 3128 3128 3128 3128 3127 3127 3127 3128 3129 3129 3130 3131 3133 3133 3130 3131 3135 3135 3136 3138 3139 3139 3140 3141 3142 3143 3145 3146 3148 3151 3154 3156 3157 3159 3162 3162 3161 3161 3161 3161 3161 3161 3161 3162 3160 3160 3162 3162 3162 3162 3162 3163 3163 3164 3165 3166 3168 3169 3171 3172 3174 3175 3177 3178 3179 3180 3181 3183 3185 3187
3134 3133 3132 3132 3131 3130 3129 3129 3128 3128 3127 3126 3126 3126 3126 3126 3126 3127 3127 3127 3127 3127 3127 3127 3127 3127 3128 3128 3129 3130 3132 3131 3127 3131 3134 3134 3136 3137 3138 3139 3139 3140 3141 3142 3144 3145 3148 3150 3153 3156 3157 3159 3162 3162 3161 3161 3161 3161 3162 3161 3161 3163 3161 3159 3160 3160 3160 3162 3162 3163 3164 3165 3166 3167 3168 3170 3172 3173 3175 3177 3178 3179 3180 3181 3183 3184 3186 3187
3133 3133 3132 3131 3130 3130 3129 3128 3127 3127 3126 3126 3125 3125 3125 3125 3125 3125 3125 3126 3126 3126 3126 3126 3126 3126 3127 3127 3128 3129 3130 3129 3127 3131 3133 3133 3135 3136 3137 3138 3139 3140 3140 3142 3143 3145 3148 3150 3153 3156 3158 3160 3162 3162 3161 3160 3161 3161 3162 3162 3161 3163 3163 3159 3157 3159 3160 3162 3163 3164 3165 3166 3167 3168 3169 3171 3173 3174 3175 3178 3179 3180 3181 3182 3183 3186 3187 3188
3133 3132 3131 3130 3130 3129 3128 3127 3127 3126 3125 3125 3124 3124 3124 3124 3124 3124 3124 3124 3125 3125 3125 3125 3125 3126 3126 3127 3127 3128 3129 3126 3126 3130 3132 3133 3134 3135 3137 3138 3139 3140 3140 3142 3143 3145 3148 3151 3153 3156 3158 3160 3162 3162 3160 3160 3161 3160 3161 3162 3162 3164 3166 3162 3157 3159 3162 3162 3164 3165 3166 3168 3168 3169 3171 3172 3173 3175 3176 3178 3179 3180 3181 3183 3184 3186 3188 3189
3133 3132 3131 3130 3129 3128 3127 3126 3126 3125 3124 3124 3123 3123 3123 3123 3123 3123 3123 3123 3123 3124 3124 3124 3125 3125 3125 3126 3126 3127 3127 3124 3125 3130 3131 3132 3133 3134 3136 3137 3139 3140 3140 3142 3143 3145 3148 3151 3154 3156 3158 3159 3161 3162 3161 3160 3160 3160 3161 3162 3162 3163 3167 3166 3160 3159 3162 3163 3164 3166 3167 3168 3169 3170 3172 3173 3174 3175 3177 3178 3180 3181 3182 3183 3185 3187 3188 3189
3132 3131 3130 3129 3128 3127 3126 3125 3125 3124 3123 3123 3122 3122 3122 3122 3121 3121 3122 3122 3122 3122 3123 3124 3124 3124 3124 3125 3126 3126 3125 3123 3125 3129 3130 3131 3133 3134 3135 3137 3138 3139 3140 3142 3143 3145 3148 3151 3154 3156 3158 3159 3160 3161 3161 3161 3161 3161 3162 3162 3162 3164 3166 3167 3161 3158 3162 3165 3165 3166 3167 3168 3169 3171 3172 3172 3174 3176 3177 3179 3181 3181 3183 3184 3185 3187 3189 3190
3131 3130 3129 3129 3128 3127 3126 3124 3124 3123 3122 3122 3121 3121 3121 3120 3120 3120 3121 3121 3121 3122 3122 3122 3123 3123 3124 3124 3125 3124 3124 3124 3124 3127 3129 3130 3132 3133 3135 3136 3137 3139 3140 3142 3143 3145 3148 3151 3154 3157 3158 3159 3159 3161 3161 3161 3161 3161 3163 3163 3163 3164 3165 3166 3163 3159 3162 3165 3166 3167 3168 3168 3169 3170 3171 3172 3174 3176 3178 3180 3182 3183 3184 3185 3186 3187 3189 3191
3130 3129 3128 3127 3127 3126 3125 3124 3123 3122 3121 3121 3120 3120 3120 3120 3119 3119 3119 3120 3120 3121 3121 3121 3122 3122 3123 3124 3124 3122 3123 3124 3123 3126 3129 3129 3131 3132 3134 3135 3137 3139 3140 3142 3143 3145 3147 3150 3153 3155 3157 3158 3159 3160 3159 3160 3161 3161 3162 3162 3163 3163 3164 3166 3162 3159 3162 3165 3166 3168 3169 3168 3169 3170 3171 3173 3173 3175 3179 3181 3182 3183 3184 3186 3187 3188 3190 3191
3129 3128 3127 3126 3125 3124 3124 3123 3122 3121 3120 3120 3119 3119 3119 3119 3118 3118 3118 3118 3119 3119 3120 3121 3121 3122 3122 3123 3123 3122 3123 3123 3123 3126 3127 3128 3130 3131 3133 3135 3136 3138 3139 3141 3144 3146 3147 3149 3151 3153 3154 3156 3158 3158 3157 3159 3160 3161 3161 3162 3162 3162 3163 3164 3161 3159 3163 3165 3166 3168 3169 3169 3170 3170 3171 3172 3173 3175 3179 3181 3183 3184 3185 3186 3187 3188 3190 3191
3127 3126 3126 3125 3124 3123 3122 3121 3120 3120 3119 3118 3118 3118 3118 3118 3117 3117 3117 3117 3118 3118 3119 3120 3120 3121 3121 3122 3121 3121 3123 3123 3123 3125 3126 3128 3129 3131 3133 3134 3136 3137 3139 3141 3144 3146 3147 3149 3150 3149 3150 3152 3155 3156 3157 3158 3159 3160 3160 3161 3161 3161 3161 3162 3160 3160 3164 3167 3168 3168 3169 3169 3170 3171 3170 3172 3173 3176 3179 3181 3183 3185 3186 3187 3187 3188 3190 3192
3125 3124 3124 3124 3123 3122 3121 3120 3119 3119 3118 3117 3117 3116 3116 3116 3116 3116 3116 3116 3117 3117 3118 3119 3120 3120 3121 3122 3121 3121 3122 3122 3123 3124 3125 3127 3129 3130 3132 3134 3136 3137 3139 3140 3143 3146 3147 3147 3147 3147 3149 3150 3153 3155 3157 3158 3158 3159 3160 3159 3160 3160 3161 3162 3161 3160 3163 3166 3167 3168 3168 3168 3170 3171 3171 3173 3174 3175 3178 3180 3182 3184 3186 3187 3187 3189 3191 3192
3124 3122 3122 3121 3121 3120 3119 3118 3118 3117 3117 3116 3116 3115 3115 3115 3115 3115 3115 3115 3116 3117 3117 3118 3119 3119 3120 3121 3119 3120 3122 3122 3123 3124 3125 3127 3128 3130 3131 3133 3135 3136 3138 3140 3141 3144 3145 3144 3145 3147 3149 3151 3153 3155 3156 3157 3157 3157 3158 3158 3159 3160 3161 3161 3161 3160 3163 3165 3166 3167 3168 3167 3170 3171 3172 3174 3174 3175 3177 3180 3182 3184 3186 3186 3187 3189 3190 3192
3122 3120 3119 3119 3118 3118 3117 3116 3116 3116 3115 3115 3115 3115 3114 3114 3114 3114 3114 3115 3115 3116 3116 3117 3118 3119 3119 3119 3119 3120 3121 3122 3122 3123 3125 3127 3128 3130 3131 3132 3135 3136 3138 3139 3140 3142 3142 3142 3145 3147 3148 3150 3153 3155 3155 3154 3154 3155 3156 3157 3157 3159 3160 3159 3160 3161 3163 3165 3166 3168 3168 3168 3169 3170 3171 3173 3174 3175 3177 3180 3182 3183 3185 3186 3186 3188 3190 3191
3120 3118 3118 3117 3116 3115 3115 3114 3114 3114 3114 3114 3114 3114 3113 3113 3113 3114 3114 3114 3114 3115 3116 3116 3117 3119 3119 3118 3119 3120 3121 3122 3122 3123 3125 3127 3129 3129 3130 3132 3134 3136 3137 3139 3140 3141 3142 3143 3145 3147 3148 3149 3151 3153 3153 3152 3152 3152 3153 3154 3156 3157 3158 3156 3157 3160 3162 3164 3165 3168 3168 3168 3169 3170 3171 3172 3173 3175 3177 3180 3181 3181 3184 3185 3186 3188 3189 3190
3118 3117 3116 3115 3114 3114 3113 3113 3113 3112 3112 3112 3112 3113 3113 3113 3113 3113 3113 3113 3114 3115 3115 3116 3117 3119 3119 3118 3119 3121 3121 3121 3122 3124 3125 3127 3128 3129 3130 3132 3134 3135 3138 3139 3140 3141 3142 3144 3145 3146 3147 3148 3150 3151 3151 3151 3151 3150 3150 3151 3153 3155 3156 3154 3155 3158 3161 3163 3165 3167 3167 3167 3168 3169 3171 3173 3172 3173 3176 3179 3180 3181 3182 3184 3186 3188 3188 3190
3118 3116 3115 3114 3113 3112 3112 3111 3111 3111 3111 3111 3111 3112 3112 3113 3114 3113 3112 3112 3113 3113 3114 3115 3117 3118 3120 3121 3120 3121 3121 3121 3123 3124 3125 3126 3127 3128 3130 3132 3134 3135 3137 3139 3140 3141 3143 3143 3143 3144 3145 3148 3149 3150 3151 3151 3151 3150 3149 3149 3150 3152 3153 3153 3153 3157 3160 3163 3164 3166 3166 3167 3167 3167 3169 3172 3172 3171 3173 3176 3179 3181 3183 3183 3185 3188 3189 3190
3118 3116 3115 3113 3112 3111 3110 3110 3110 3110 3110 3110 3111 3111 3112 3113 3114 3113 3111 3111 3113 3113 3113 3115 3117 3118 3121 3123 3120 3120 3121 3122 3123 3124 3125 3126 3127 3129 3130 3131 3134 3135 3136 3139 3141 3141 3142 3142 3142 3143 3145 3147 3149 3150 3151 3151 3151 3151 3150 3149 3149 3151 3152 3151 3152 3156 3159 3161 3162 3164 3165 3166 3167 3167 3168 3169 3171 3171 3172 3175 3178 3180 3182 3182 3184 3187 3189 3190
3118 3116 3115 3113 3112 3110 3110 3109 3109 3109 3109 3109 3110 3111 3111 3112 3112 3111 3111 3112 3112 3113 3113 3114 3116 3117 3120 3121 3119 3120 3122 3122 3123 3124 3124 3125 3127 3129 3130 3131 3134 3135 3136 3139 3140 3141 3141 3140 3141 3144 3145 3147 3148 3149 3150 3151 3151 3151 3150 3150 3149 3149 3152 3152 3152 3154 3156 3158 3160 3162 3164 3166 3167 3168 3168 3168 3169 3170 3172 3174 3176 3178 3180 3181 3183 3186 3188 3190
3118 3116 3115 3113 3112 3110 3109 3109 3108 3108 3108 3109 3109 3110 3110 3110 3110 3111 3111 3111 3112 3113 3113 3114 3115 3117 3118 3118 3118 3119 3122 3122 3123 3124 3124 3125 3127 3129 3130 3132 3133 3135 3136 3137 3138 3139 3139 3139 3141 3143 3145 3146 3147 3148 3149 3150 3150 3150 3149 3150 3150 3148 3150 3152 3152 3154 3156 3157 3158 3161 3163 3165 3166 3167 3167 3168 3169 3170 3171 3173 3176 3177 3179 3181 3184 3186 3188 3190
3118 3116 3114 3113 3112 3110 3109 3108 3108 3108 3108 3108 3109 3109 3109 3109 3110 3111 3110 3111 3112 3112 3113 3113 3114 3115 3117 3118 3118 3119 3121 3122 3123 3124 3123 3124 3127 3129 3130 3132 3133 3134 3135 3136 3137 3138 3138 3139 3140 3142 3144 3145 3146 3146 3148 3149 3149 3149 3149 3150 3150 3149 3150 3151 3152 3155 3156 3156 3157 3160 3163 3164 3164 3165 3167 3168 3169 3170 3171 3173 3175 3176 3178 3181 3183 3185 3187 3189
3118 3116 3114 3113 3112 3111 3110 3108 3108 3108 3108 3108 3109 3109 3109 3109 3110 3110 3110 3111 3111 3110 3112 3112 3113 3114 3116 3118 3118 3118 3120 3122 3123 3124 3122 3123 3127 3129 3131 3132 3132 3133 3134 3135 3137 3137 3137 3138 3140 3140 3142 3143 3145 3145 3146 3148 3148 3148 3149 3150 3150 3150 3151 3151 3152 3154 3154 3154 3154 3157 3159 3161 3162 3164 3167 3168 3167 3168 3170 3172 3174 3176 3178 3180 3183 3185 3187 3188
3118 3116 3114 3113 3112 3111 3110 3109 3108 3108 3109 3110 3110 3109 3109 3109 3109 3110 3110 3110 3109 3109 3110 3111 3111 3113 3115 3117 3117 3119 3121 3120 3122 3123 3121 3123 3126 3129 3131 3132 3131 3132 3133 3135 3135 3136 3136 3137 3138 3139 3141 3142 3144 3144 3145 3146 3147 3147 3148 3150 3150 3150 3150 3150 3151 3152 3152 3151 3151 3153 3155 3157 3160 3164 3166 3168 3167 3168 3170 3172 3174 3176 3178 3180 3182 3185 3187 3188
3118 3116 3114 3113 3112 3111 3110 3109 3109 3110 3112 3112 3110 3109 3109 3109 3109 3109 3110 3110 3107 3107 3109 3110 3111 3112 3114 3116 3117 3119 3120 3119 3121 3122 3121 3123 3125 3128 3129 3131 3131 3131 3132 3134 3134 3133 3134 3136 3137 3138 3139 3140 3142 3143 3144 3146 3147 3146 3147 3149 3150 3149 3149 3150 3152 3152 3152 3150 3150 3152 3153 3154 3159 3164 3166 3168 3169 3169 3170 3172 3173 3175 3178 3180 3183 3185 3186 3187
3118 3116 3115 3113 3112 3111 3110 3110 3109 3110 3112 3111 3109 3109 3109 3109 3109 3110 3112 3109 3105 3107 3109 3109 3110 3111 3113 3115 3116 3119 3119 3118 3119 3120 3122 3124 3125 3127 3128 3129 3131 3131 3130 3132 3132 3132 3133 3134 3135 3137 3137 3138 3140 3142 3143 3145 3146 3146 3147 3148 3149 3149 3149 3151 3152 3151 3151 3150 3150 3151 3152 3153 3157 3163 3167 3169 3169 3170 3172 3172 3172 3174 3176 3178 3182 3184 3185 3185
3118 3116 3115 3113 3112 3111 3111 3110 3110 3109 3110 3109 3109 3109 3109 3110 3110 3111 3113 3109 3105 3107 3109 3109 3110 3112 3113 3115 3116 3118 3119 3119 3119 3119 3122 3124 3124 3126 3128 3128 3129 3130 3129 3129 3130 3131 3132 3132 3134 3136 3136 3137 3140 3142 3143 3144 3145 3146 3147 3147 3146 3147 3149 3152 3152 3151 3150 3151 3149 3149 3150 3151 3156 3162 3165 3167 3168 3169 3171 3172 3172 3174 3176 3177 3179 3182 3183 3183
3118 3116 3115 3114 3113 3112 3111 3110 3110 3110 3109 3109 3109 3109 3110 3110 3112 3112 3111 3109 3106 3107 3108 3109 3111 3112 3114 3115 3116 3117 3119 3119 3119 3120 3122 3124 3124 3125 3126 3127 3126 3127 3128 3128 3128 3130 3131 3132 3133 3134 3136 3138 3140 3141 3143 3144 3145 3146 3147 3147 3145 3145 3148 3150 3151 3151 3151 3150 3148 3147 3148 3150 3156 3161 3163 3164 3166 3167 3169 3171 3171 3172 3175 3177 3178 3179 3181 3182
3118 3117 3115 3114 3113 3112 3111 3111 3111 3111 3110 3110 3110 3110 3111 3113 3114 3112 3108 3107 3107 3107 3107 3109 3110 3112 3113 3114 3115 3117 3118 3119 3120 3121 3122 3123 3125 3125 3125 3126 3126 3126 3127 3127 3127 3128 3129 3131 3132 3134 3136 3138 3140 3141 3142 3143 3144 3145 3145 3147 3147 3145 3147 3150 3150 3151 3151 3149 3147 3147 3147 3148 3152 3155 3158 3161 3163 3166 3168 3169 3171 3172 3173 3175 3176 3177 3179 3180
3119 3118 3116 3115 3114 3113 3112 3112 3112 3112 3111 3112 3112 3112 3113 3115 3115 3112 3109 3109 3107 3107 3107 3108 3110 3111 3113 3114 3114 3115 3117 3118 3120 3121 3122 3123 3124 3125 3125 3126 3127 3126 3126 3127 3128 3128 3129 3129 3131 3133 3135 3137 3138 3139 3141 3142 3144 3144 3144 3145 3146 3145 3149 3152 3150 3150 3151 3149 3147 3147 3147 3148 3151 3152 3155 3159 3161 3164 3167 3168 3169 3171 3172 3174 3175 3175 3177 3178
3119 3118 3117 3116 3115 3115 3113 3113 3113 3113 3113 3113 3113 3114 3116 3118 3117 3113 3111 3110 3108 3107 3108 3108 3109 3111 3112 3113 3113 3114 3116 3117 3118 3120 3122 3122 3123 3124 3125 3125 3126 3126 3125 3126 3126 3127 3128 3128 3130 3132 3133 3134 3135 3136 3137 3139 3142 3143 3142 3144 3145 3144 3148 3151 3149 3148 3150 3149 3147 3145 3146 3149 3153 3155 3158 3161 3162 3164 3167 3168 3169 3170 3171 3172 3173 3174 3175 3177
3120 3119 3118 3118 3117 3116 3115 3114 3114 3114 3114 3114 3115 3116 3117 3117 3116 3112 3110 3110 3109 3110 3109 3108 3109 3111 3112 3111 3111 3113 3115 3116 3117 3119 3120 3121 3122 3123 3124 3125 3125 3126 3126 3125 3125 3125 3125 3126 3128 3131 3132 3133 3134 3134 3135 3138 3140 3142 3142 3143 3145 3143 3144 3147 3147 3147 3148 3147 3146 3144 3144 3147 3151 3156 3160 3163 3163 3163 3166 3168 3169 3169 3168 3171 3173 3174 3175 3176
3120 3120 3119 3119 3118 3117 3116 3116 3116 3116 3116 3116 3117 3118 3117 3115 3114 3112 3111 3111 3110 3111 3110 3109 3109 3110 3111 3110 3110 3112 3114 3115 3117 3118 3119 3119 3120 3121 3122 3124 3125 3125 3125 3124 3125 3125 3123 3122 3125 3129 3131 3133 3134 3134 3136 3138 3139 3141 3142 3142 3142 3142 3141 3142 3143 3144 3145 3145 3143 3142 3143 3147 3152 3157 3160 3163 3164 3164 3165 3167 3168 3167 3166 3168 3172 3173 3173 3175
3120 3120 3120 3120 3119 3119 3118 3117 3118 3117 3116 3117 3119 3119 3117 3115 3114 3113 3112 3112 3111 3110 3110 3110 3110 3110 3110 3110 3110 3112 3113 3114 3116 3117 3117 3117 3119 3120 3121 3123 3124 3125 3124 3124 3125 3125 3123 3121 3123 3127 3131 3132 3134 3135 3137 3138 3137 3138 3141 3140 3141 3142 3141 3140 3140 3141 3142 3142 3140 3141 3145 3149 3153 3158 3161 3162 3163 3164 3165 3166 3166 3165 3164 3167 3170 3171 3172 3173
3120 3119 3121 3122 3121 3120 3119 3119 3119 3118 3117 3119 3120 3119 3117 3116 3115 3115 3113 3113 3112 3111 3110 3111 3112 3112 3111 3110 3112 3114 3114 3115 3115 3115 3115 3116 3118 3120 3121 3123 3123 3124 3125 3125 3125 3126 3124 3123 3123 3126 3130 3132 3134 3136 3137 3137 3136 3136 3138 3140 3142 3143 3141 3140 3138 3137 3138 3138 3135 3138 3144 3148 3151 3156 3160 3161 3161 3163 3164 3165 3166 3165 3163 3165 3168 3169 3170 3172
3120 3119 3121 3123 3123 3122 3121 3120 3119 3119 3119 3120 3120 3118 3118 3117 3116 3115 3114 3113 3113 3113 3112 3112 3113 3114 3113 3113 3115 3116 3116 3117 3116 3114 3115 3117 3119 3121 3123 3124 3124 3124 3125 3125 3126 3126 3125 3125 3126 3128 3130 3131 3134 3136 3136 3136 3136 3135 3137 3140 3141 3140 3140 3140 3138 3138 3138 3135 3132 3135 3142 3146 3149 3153 3156 3158 3160 3162 3164 3164 3166 3165 3163 3164 3167 3168 3169 3170
3120 3119 3121 3123 3123 3122 3121 3120 3119 3119 3120 3121 3120 3118 3118 3118 3117 3116 3115 3115 3114 3114 3115 3114 3115 3115 3114 3115 3117 3117 3117 3119 3118 3117 3117 3119 3120 3121 3123 3124 3124 3124 3124 3125 3127 3126 3125 3125 3127 3129 3130 3131 3134 3134 3134 3136 3136 3136 3137 3139 3139 3138 3138 3137 3137 3138 3138 3135 3132 3133 3139 3145 3148 3151 3154 3157 3158 3161 3163 3164 3165 3165 3164 3164 3166 3168 3169 3170
3119 3120 3122 3124 3124 3122 3120 3120 3120 3121 3122 3121 3119 3119 3118 3118 3118 3117 3116 3116 3115 3116 3117 3117 3116 3115 3116 3116 3117 3117 3118 3119 3119 3119 3119 3121 3122 3122 3123 3123 3124 3125 3125 3126 3127 3126 3126 3125 3125 3128 3129 3130 3132 3132 3133 3135 3136 3136 3137 3138 3138 3137 3137 3135 3135 3137 3137 3135 3132 3131 3138 3147 3150 3151 3154 3156 3158 3160 3162 3163 3163 3164 3164 3163 3165 3166 3168 3169
3119 3122 3123 3123 3123 3121 3120 3121 3121 3121 3121 3119 3119 3119 3119 3118 3118 3118 3117 3117 3116 3116 3117 3118 3117 3116 3116 3116 3116 3117 3118 3118 3119 3120 3122 3123 3124 3123 3123 3123 3124 3125 3126 3127 3128 3127 3126 3125 3125 3127 3128 3128 3129 3130 3132 3134 3134 3135 3136 3136 3136 3136 3135 3134 3133 3135 3136 3136 3133 3132 3142 3152 3152 3153 3156 3157 3159 3161 3162 3162 3163 3163 3163 3163 3164 3165 3166 3168
3120 3123 3123 3121 3121 3120 3120 3122 3121 3121 3120 3118 3119 3119 3119 3118 3118 3118 3118 3118 3117 3117 3117 3118 3118 3117 3117 3117 3117 3118 3119 3119 3120 3122 3124 3125 3124 3124 3123 3123 3124 3124 3125 3127 3128 3127 3127 3126 3127 3127 3126 3127 3127 3128 3131 3132 3132 3133 3133 3134 3135 3134 3135 3136 3135 3134 3134 3135 3135 3135 3143 3152 3154 3155 3157 3158 3160 3161 3162 3162 3162 3162 3162 3162 3163 3164 3165 3166
3121 3123 3122 3121 3121 3120 3121 3122 3121 3121 3120 3119 3119 3119 3119 3119 3119 3118 3118 3118 3118 3117 3117 3118 3118 3118 3119 3119 3119 3120 3120 3121 3122 3123 3125 3125 3125 3125 3124 3124 3125 3125 3125 3126 3127 3126 3128 3129 3128 3128 3128 3127 3128 3129 3131 3131 3131 3132 3131 3132 3133 3132 3134 3136 3136 3134 3133 3134 3135 3138 3144 3152 3154 3155 3156 3157 3159 3160 3162 3163 3163 3162 3162 3162 3163 3163 3164 3165
3121 3124 3123 3121 3120 3120 3121 3122 3121 3120 3120 3119 3119 3119 3119 3119 3119 3119 3119 3119 3119 3119 3118 3118 3118 3119 3119 3119 3120 3121 3121 3123 3124 3124 3125 3125 3125 3125 3125 3125 3125 3125 3124 3125 3126 3127 3128 3130 3129 3129 3129 3127 3127 3130 3132 3132 3132 3132 3132 3132 3132 3132 3134 3134 3134 3134 3134 3133 3136 3140 3147 3152 3154 3155 3156 3158 3159 3160 3161 3163 3163 3162 3161 3162 3163 3163 3163 3164
3121 3123 3123 3122 3121 3121 3122 3122 3121 3121 3120 3120 3120 3120 3119 3119 3118 3119 3120 3120 3120 3120 3119 3119 3119 3119 3120 3120 3121 3121 3122 3123 3124 3124 3125 3125 3125 3125 3125 3125 3125 3125 3125 3126 3127 3127 3129 3130 3130 3130 3129 3127 3127 3130 3131 3131 3132 3132 3132 3132 3132 3133 3135 3135 3135 3136 3135 3135 3137 3142 3148 3153 3155 3156 3157 3158 3159 3160 3160 3161 3162 3162 3162 3164 3164 3163 3163 3164
3121 3122 3124 3123 3122 3123 3123 3122 3121 3121 3120 3120 3120 3120 3120 3120 3119 3119 3119 3120 3120 3120 3120 3120 3120 3120 3120 3121 3122 3122 3123 3124 3124 3125 3125 3126 3126 3126 3126 3126 3126 3126 3127 3127 3128 3129 3130 3130 3131 3132 3132 3131 3131 3132 3131 3131 3133 3133 3133 3133 3133 3135 3137 3138 3138 3138 3136 3137 3141 3145 3148 3152 3155 3156 3157 3158 3159 3160 3160 3161 3162 3162 3163 3165 3165 3163 3163 3164
3122 3123 3123 3123 3123 3123 3123 3122 3122 3121 3120 3121 3121 3121 3121 3121 3120 3120 3120 3120 3120 3120 3120 3121 3120 3121 3120 3121 3122 3123 3123 3123 3124 3125 3126 3126 3127 3126 3126 3127 3127 3128 3128 3129 3130 3130 3131 3132 3132 3133 3134 3133 3134 3134 3133 3133 3133 3133 3133 3133 3134 3136 3137 3139 3140 3139 3138 3139 3144 3147 3148 3150 3154 3156 3157 3158 3159 3160 3161 3162 3163 3163 3164 3166 3166 3164 3164 3164
3123 3124 3123 3122 3123 3123 3123 3122 3122 3122 3121 3121 3121 3121 3121 3121 3121 3121 3120 3120 3120 3120 3121 3121 3121 3121 3122 3122 3122 3123 3124 3124 3124 3125 3126 3127 3127 3127 3128 3128 3129 3129 3130 3131 3131 3131 3132 3132 3132 3133 3134 3134 3135 3134 3134 3134 3133 3130 3130 3132 3135 3137 3138 3139 3139 3139 3140 3141 3144 3148 3150 3151 3153 3155 3156 3158 3159 3159 3161 3162 3164 3164 3166 3167 3167 3166 3164 3164
3123 3124 3123 3122 3123 3123 3122 3122 3122 3122 3122 3121 3122 3122 3122 3122 3122 3122 3121 3121 3121 3121 3121 3122 3122 3122 3123 3123 3123 3124 3125 3125 3125 3126 3127 3128 3128 3128 3129 3129 3130 3130 3131 3131 3131 3131 3132 3132 3132 3134 3134 3135 3135 3135 3134 3135 3134 3132 3132 3134 3137 3138 3138 3139 3139 3140 3142 3143 3144 3146 3149 3151 3153 3154 3155 3157 3158 3159 3160 3162 3163 3164 3166 3167 3167 3166 3165 3164
3121 3122 3122 3123 3124 3123 3122 3123 3123 3123 3122 3122 3122 3123 3123 3123 3123 3123 3122 3122 3122 3122 3122 3123 3123 3123 3123 3123 3124 3125 3126 3126 3127 3127 3128 3128 3128 3129 3129 3129 3130 3130 3131 3131 3131 3132 3132 3133 3133 3135 3135 3135 3136 3136 3135 3135 3135 3135 3135 3137 3138 3139 3139 3139 3139 3140 3142 3143 3144 3145 3147 3149 3152 3154 3155 3156 3157 3158 3158 3160 3161 3163 3166 3167 3167 3166 3164 3163
3120 3121 3122 3123 3123 3123 3123 3123 3124 3124 3123 3123 3123 3123 3123 3123 3123 3123 3123 3122 3123 3123 3123 3123 3123 3123 3123 3124 3124 3126 3127 3127 3128 3128 3128 3129 3129 3129 3129 3129 3130 3131 3131 3131 3132 3132 3133 3134 3134 3135 3136 3135 3135 3136 3136 3136 3136 3136 3136 3137 3139 3140 3140 3140 3140 3141 3142 3144 3145 3146 3147 3149 3151 3154 3155 3156 3156 3156 3157 3158 3159 3160 3163 3166 3167 3166 3163 3163
3120 3120 3121 3122 3123 3124 3123 3124 3124 3124 3123 3123 3123 3123 3124 3123 3123 3123 3123 3123 3123 3123 3123 3124 3124 3124 3124 3124 3124 3125 3126 3127 3127 3127 3128 3128 3129 3129 3129 3129 3130 3131 3131 3132 3132 3132 3133 3134 3134 3135 3135 3135 3135 3136 3137 3137 3137 3136 3135 3137 3138 3140 3140 3141 3141 3142 3142 3143 3144 3145 3147 3149 3151 3153 3154 3155 3155 3156 3157 3157 3158 3159 3161 3163 3165 3165 3163 3162